AI4ZL Weather Reports


Display with metric or nautical units.
time (UTC)temp
F
wind
direction
speed
MPH
gust
MPH
rain 1hr
in
rain 24hr
in
rain mn
in
humidity
%
barometer
mb
20260903102236 72 0.0 0.0 0.00 0.00 0.00 99 1017.6
20260903101249 72 0.0 0.0 0.00 0.00 0.00 99 1017.5
20260903100243 72 0.0 0.0 0.00 0.00 0.00 99 1017.5
20260903095259 72 0.0 0.0 0.00 0.00 0.00 99 1017.4
20260903094233 73 0.0 0.0 0.00 0.00 0.00 99 1017.3
20260903093248 73 0.0 0.0 0.00 0.00 0.00 99 1017.3
20260903092306 72 0.0 0.0 0.00 0.00 0.00 99 1017.5
20260903091238 73 0.0 0.0 0.00 0.00 0.00 99 1017.5
20260903090233 73 0.0 0.0 0.00 0.00 0.00 99 1017.3
20260903085247 73 0.0 0.0 0.00 0.00 0.00 99 1017.5
20260903084241 73 0.0 0.0 0.00 0.00 0.00 99 1017.3
20260903083236 73 0.0 0.0 0.00 0.00 0.00 98 1017.2
20260903082231 73 0.0 0.0 0.00 0.00 0.00 98 1017.0
20260903081245 73 0.0 0.0 0.00 0.00 0.00 98 1017.1
20260903080240 73 0.0 0.0 0.00 0.00 0.00 98 1017.1
20260903075235 74 0.0 0.0 0.00 0.00 0.00 98 1017.1
20260903074249 74 0.0 0.0 0.00 0.00 0.00 98 1016.9
20260903073244 74 0.0 0.0 0.00 0.00 0.00 98 1016.9
20260903072240 74 0.0 0.0 0.00 0.00 0.00 98 1017.1
20260903071254 74 0.0 0.0 0.00 0.00 0.00 98 1017.0
20260903070248 74 0.0 0.0 0.00 0.00 0.00 98 1016.9
20260903065241 74 0.0 0.0 0.00 0.00 0.00 98 1017.1
20260903064258 74 0.0 0.0 0.00 0.00 0.00 98 1017.1
20260903063234 74 0.0 0.0 0.00 0.00 0.00 98 1017.2
20260903062249 74 0.0 0.0 0.00 0.00 0.00 97 1017.2
20260903061244 75 0.0 0.0 0.00 0.00 0.00 97 1017.2
20260903060239 75 0.0 0.0 0.00 0.00 0.00 97 1017.3
20260903055233 75 0.0 0.0 0.00 0.00 0.00 98 1017.3
20260903054248 75 0.0 0.0 0.00 0.00 0.00 98 1017.2
20260903053242 75 0.0 0.0 0.00 0.00 0.00 97 1017.3
20260903052236 75 0.0 0.0 0.00 0.00 0.00 97 1017.3
20260903051231 75 0.0 0.0 0.00 0.00 0.00 96 1017.3
20260903050246 76 0.0 0.0 0.00 0.00 0.00 96 1017.3
20260903045240 76 0.0 0.0 0.00 0.00 0.00 96 1017.2
20260903044234 76 0.0 0.0 0.00 0.00 0.00 96 1017.1
20260903043249 76 0.0 0.0 0.00 0.00 0.00 96 1017.1
20260903042244 76 0.0 0.0 0.00 0.00 0.00 95 1017.1
20260903041238 76 0.0 0.0 0.00 0.00 0.00 95 1017.1
20260903040233 77 0.0 0.0 0.00 0.00 0.00 95 1017.1
20260903035248 77 0.0 0.0 0.00 0.00 0.00 94 1017.2
20260903034243 77 0.0 0.0 0.00 0.00 0.00 94 1017.2
20260903033237 77 0.0 0.0 0.00 0.00 0.00 93 1017.1
20260903032233 78 0.0 0.0 0.00 0.00 0.00 92 1017.3
20260903031246 79 0.0 0.0 0.00 0.00 0.00 91 1017.2
20260903030241 79 0.0 0.0 0.00 0.00 0.00 91 1017.2
20260903025235 79 0.0 0.0 0.00 0.00 0.00 91 1017.2
20260903024250 79 0.0 0.0 0.00 0.00 0.00 90 1017.1
20260903023244 80 0.0 0.0 0.00 0.00 0.00 89 1017.1
20260903022239 80 0.0 0.0 0.00 0.00 0.00 88 1017.1
20260903021235 80 0.0 0.0 0.00 0.00 0.00 89 1017.1
20260903020250 80 0.0 0.0 0.00 0.00 0.00 89 1017.0
20260903015245 81 0.0 0.0 0.00 0.00 0.00 89 1016.9
20260903014240 81 0.0 0.0 0.00 0.00 0.00 89 1017.0
20260903013236 81 0.0 0.0 0.00 0.00 0.00 88 1016.7
20260903012231 81 0.0 0.0 0.00 0.00 0.00 88 1016.7
20260903011246 82 0.0 0.0 0.00 0.00 0.00 88 1016.6
20260903010240 82 0.0 0.0 0.00 0.00 0.00 86 1016.6
20260903005235 83 0.0 0.0 0.00 0.00 0.00 84 1016.5
20260903004310 84 0.0 0.0 0.00 0.00 0.00 82 1016.6
20260903003244 86 0.0 0.0 0.00 0.00 0.00 78 1016.6
20260903002238 88 0.0 0.0 0.00 0.00 0.00 74 1016.5
20260903001309 89 0.0 0.0 0.00 0.00 0.00 71 1016.5
20260903000243 90 0.0 0.0 0.00 0.00 0.00 70 1016.5
20260902235236 91 0.0 0.0 0.00 0.00 0.00 67 1016.5
20260902234249 92 354 0.0 1.0 0.00 0.00 0.00 64 1016.8
20260902233245 93 19 0.0 1.0 0.00 0.00 0.00 63 1016.7
20260902232259 94 22 0.0 1.0 0.00 0.00 0.00 62 1016.8
20260902231234 94 41 1.0 2.0 0.00 0.00 0.00 61 1016.8
20260902230248 95 9 0.0 1.0 0.00 0.00 0.00 60 1016.8
20260902225241 95 51 1.0 2.0 0.00 0.00 0.00 59 1016.8
20260902224235 96 52 1.0 2.0 0.00 0.00 0.00 58 1016.8
20260902223245 97 146 1.0 2.0 0.00 0.00 0.00 55 1016.8
20260902222241 97 232 0.0 1.0 0.00 0.00 0.00 55 1016.8
20260902221310 98 309 0.0 1.0 0.00 0.00 0.00 53 1016.8
20260902220241 97 354 0.0 1.0 0.00 0.00 0.00 55 1016.9
20260902215234 98 45 1.0 2.0 0.00 0.00 0.00 53 1017.0
20260902214248 98 288 0.0 1.0 0.00 0.00 0.00 53 1017.0
20260902213237 96 254 0.0 3.0 0.00 0.00 0.00 56 1017.1
20260902212244 99 192 1.0 2.0 0.00 0.00 0.00 50 1017.2
20260902211236 99 209 1.0 3.0 0.00 0.00 0.00 51 1017.1
20260902210245 99 240 1.0 2.0 0.00 0.00 0.00 51 1017.1
20260902205253 97 197 2.0 3.0 0.00 0.00 0.00 54 1017.3
20260902204253 97 184 1.0 2.0 0.00 0.00 0.00 54 1017.5
20260902203233 97 243 1.0 2.0 0.00 0.00 0.00 56 1017.5
20260902202244 96 243 1.0 3.0 0.00 0.00 0.00 56 1017.5
20260902201234 97 194 1.0 2.0 0.00 0.00 0.00 55 1017.7
20260902200245 96 256 1.0 2.0 0.00 0.00 0.00 54 1018.0
20260902195231 95 210 1.0 4.0 0.00 0.00 0.00 57 1018.0
20260902194242 96 224 2.0 3.0 0.00 0.00 0.00 56 1018.3
20260902193233 97 210 2.0 3.0 0.00 0.00 0.00 51 1018.4
20260902192246 98 199 2.0 6.0 0.00 0.00 0.00 51 1018.4
20260902191242 97 273 2.0 3.0 0.00 0.00 0.00 52 1018.5
20260902190239 97 284 2.0 4.0 0.00 0.00 0.00 51 1018.6
20260902185235 97 246 2.0 7.0 0.00 0.00 0.00 52 1018.6
20260902184231 96 246 2.0 3.0 0.00 0.00 0.00 54 1018.9
20260902183247 97 246 2.0 6.0 0.00 0.00 0.00 52 1018.8
20260902182243 96 220 1.0 4.0 0.00 0.00 0.00 56 1018.7
20260902181239 96 258 2.0 4.0 0.00 0.00 0.00 56 1018.8
20260902180234 95 221 2.0 3.0 0.00 0.00 0.00 58 1018.9
20260902175249 96 148 2.0 3.0 0.00 0.00 0.00 55 1019.1
20260902174245 96 206 2.0 6.0 0.00 0.00 0.00 56 1019.1
20260902173238 97 190 2.0 4.0 0.00 0.00 0.00 56 1019.3
20260902172233 96 170 2.0 4.0 0.00 0.00 0.00 57 1019.3
20260902171248 96 223 3.0 6.0 0.00 0.00 0.00 56 1019.4
20260902170243 95 256 2.0 4.0 0.00 0.00 0.00 57 1019.6
20260902165239 96 260 3.0 7.0 0.00 0.00 0.00 57 1019.8
20260902164235 95 265 3.0 6.0 0.00 0.00 0.00 59 1019.8
20260902163244 95 255 3.0 7.0 0.00 0.00 0.00 58 1019.9
20260902162258 95 202 2.0 4.0 0.00 0.00 0.00 61 1019.9
20260902161234 94 231 2.0 4.0 0.00 0.00 0.00 61 1019.9
20260902160249 94 257 1.0 4.0 0.00 0.00 0.00 63 1020.0
20260902155242 93 187 1.0 3.0 0.00 0.00 0.00 64 1020.1
20260902154237 93 202 1.0 3.0 0.00 0.00 0.00 64 1020.2
20260902153231 92 236 1.0 3.0 0.00 0.00 0.00 65 1020.0
20260902152308 92 276 2.0 6.0 0.00 0.00 0.00 64 1020.1
20260902151239 91 269 1.0 2.0 0.00 0.00 0.00 66 1020.2
20260902150231 91 179 1.0 3.0 0.00 0.00 0.00 68 1020.3
20260902145241 90 269 2.0 6.0 0.00 0.00 0.00 68 1020.1
20260902144233 89 213 2.0 3.0 0.00 0.00 0.00 70 1020.0
20260902143244 88 232 2.0 4.0 0.00 0.00 0.00 71 1020.1
20260902142238 88 206 1.0 3.0 0.00 0.00 0.00 72 1020.0
20260902141250 87 202 2.0 3.0 0.00 0.00 0.00 73 1020.1
20260902140242 86 221 1.0 2.0 0.00 0.00 0.00 74 1020.1
20260902135253 86 232 1.0 3.0 0.00 0.00 0.00 76 1020.2
20260902134245 85 197 1.0 3.0 0.00 0.00 0.00 76 1020.3
20260902133239 84 227 1.0 2.0 0.00 0.00 0.00 79 1020.3
20260902132235 83 249 1.0 2.0 0.00 0.00 0.00 80 1020.1
20260902131230 82 201 1.0 2.0 0.00 0.00 0.00 82 1019.9
20260902130245 80 257 1.0 2.0 0.00 0.00 0.00 87 1019.9
20260902125238 77 320 0.0 1.0 0.00 0.00 0.00 96 1019.8
20260902124231 75 0.0 0.0 0.00 0.00 0.00 99 1019.8
20260902123307 74 0.0 0.0 0.00 0.00 0.00 99 1019.8
20260902122258 74 0.0 0.0 0.00 0.00 0.00 99 1019.7
20260902121232 73 0.0 0.0 0.00 0.00 0.00 99 1019.5
20260902120246 73 0.0 0.0 0.00 0.00 0.00 99 1019.4
20260902115239 73 0.0 0.0 0.00 0.00 0.00 99 1019.2
20260902114233 73 0.0 0.0 0.00 0.00 0.00 99 1019.2
20260902113247 73 0.0 0.0 0.00 0.00 0.00 98 1019.2
20260902112242 73 0.0 0.0 0.00 0.00 0.00 98 1019.0
20260902111254 73 0.0 0.0 0.00 0.00 0.00 97 1019.1
20260902110247 74 0.0 0.0 0.00 0.00 0.00 97 1018.9
20260902105301 74 0.0 0.0 0.00 0.00 0.00 97 1018.9
20260902104235 73 0.0 0.0 0.00 0.00 0.00 98 1018.7
20260902103248 73 0.0 0.0 0.00 0.00 0.00 98 1018.6